TimeMST,TemperatureF,Dew PointF,Humidity,Sea Level PressureIn,VisibilityMPH,Wind Direction,Wind SpeedMPH,Gust SpeedMPH,PrecipitationIn,Events,Conditions,WindDirDegrees,DateUTC
12:56 AM,43.0,30.0,60,29.98,10.0,Calm,Calm,-,N/A,,Clear,0,2013-04-03 07:56:00
1:56 AM,37.0,27.0,67,30.01,10.0,WSW,5.8,-,N/A,,Clear,240,2013-04-03 08:56:00
2:56 AM,37.9,28.0,68,30.02,10.0,WSW,9.2,-,N/A,,Clear,250,2013-04-03 09:56:00
3:56 AM,36.0,27.0,70,30.03,10.0,WSW,6.9,-,N/A,,Clear,240,2013-04-03 10:56:00
4:56 AM,36.0,27.0,70,30.06,10.0,Calm,Calm,-,N/A,,Clear,0,2013-04-03 11:56:00
5:56 AM,36.0,28.0,73,30.08,10.0,NE,3.5,-,N/A,,Clear,40,2013-04-03 12:56:00
6:56 AM,37.0,28.0,70,30.09,10.0,Calm,Calm,-,N/A,,Clear,0,2013-04-03 13:56:00
7:56 AM,45.0,30.9,58,30.11,10.0,WSW,4.6,-,N/A,,Clear,240,2013-04-03 14:56:00
8:56 AM,52.0,30.9,45,30.10,10.0,NNW,3.5,-,N/A,,Clear,330,2013-04-03 15:56:00
9:56 AM,57.0,32.0,39,30.08,10.0,NNW,9.2,-,N/A,,Clear,330,2013-04-03 16:56:00
10:56 AM,60.1,30.0,32,30.08,10.0,NW,8.1,-,N/A,,Clear,310,2013-04-03 17:56:00
11:56 AM,63.0,28.0,27,30.08,10.0,North,12.7,17.3,N/A,,Clear,350,2013-04-03 18:56:00
12:56 PM,64.0,28.0,26,30.06,10.0,NNW,9.2,-,N/A,,Clear,340,2013-04-03 19:56:00
1:56 PM,68.0,27.0,21,30.04,10.0,NW,6.9,16.1,N/A,,Clear,310,2013-04-03 20:56:00
2:56 PM,66.9,25.0,21,30.03,10.0,Variable,4.6,-,N/A,,Clear,0,2013-04-03 21:56:00
3:56 PM,70.0,21.9,16,30.01,10.0,Variable,6.9,-,N/A,,Clear,0,2013-04-03 22:56:00
4:56 PM,69.1,19.9,15,30.01,10.0,NW,8.1,-,N/A,,Clear,320,2013-04-03 23:56:00
5:56 PM,68.0,17.1,14,30.02,10.0,West,10.4,-,N/A,,Clear,280,2013-04-04 00:56:00
6:56 PM,64.0,14.0,14,30.03,10.0,WNW,6.9,-,N/A,,Clear,300,2013-04-04 01:56:00
7:56 PM,54.0,12.9,20,30.06,10.0,WNW,9.2,-,N/A,,Clear,290,2013-04-04 02:56:00
8:56 PM,48.9,12.0,23,30.07,10.0,WSW,8.1,-,N/A,,Clear,240,2013-04-04 03:56:00
9:56 PM,46.9,12.9,25,30.09,10.0,Calm,Calm,-,N/A,,Clear,0,2013-04-04 04:56:00
10:56 PM,46.9,12.9,25,30.09,10.0,Calm,Calm,-,N/A,,Clear,0,2013-04-04 05:56:00
11:56 PM,42.1,14.0,32,30.11,10.0,Calm,Calm,-,N/A,,Clear,0,2013-04-04 06:56:00